OBJECT XM, 65733

Orbit data source: Space-Track

You're viewing an Uncataloged Satellite

Recently launched and/or uncataloged satellites may have evolving metadata. Metadata may include but not limited to: Owner, Maufacturer, Bus, Motor, and Mission.

OBJECT XM, 65733 is a Japanese satellite in LEO that was delivered to and deployed from the ISS. Unknown objects in Earth's orbit typically refer to objects detected orbiting the Earth but have not yet been identified or cataloged. These objects could be anything from previously untracked satellites, spent rocket stages, debris from satellite collisions, or even natural meteoroids temporarily captured by Earth's gravity.

Loading next visibility...
Identifier
65733, 1998-067XM
Orbit
LEO
Country
Flag of JPJP / JPN
Related business
Manufacturer
GIDAI
Mission
Operational spacecraft
Bus & Motor
CUBESAT 2U, Unknown motor
Mass
2 kg wet, 2 kg dry
Launch date (UTC)
1998-11-20 (27 years ago)
Launch vehicle
FALCON 9
Launch site
Tyuratam Missile And Space Complex (TTMTR)
Object type
Unknown
Shape & HBR
Unknown shape, 1.1 m
Radar Cross Section
RCS unknown

Expand to show TLE details & history
Last TLE update: 10 hours ago

TLE from 10 hours ago
0 OBJECT XM
1 65733U 98067XM  25292.85743322  .00134334  00000-0  17719-2 0  9993
2 65733  51.6331  48.2329 0001495  29.6440 330.4636 15.57442461  4746
Epoch: 2025-10-19T20:34Z
TLE epoch observation values (Epoch: 2025-10-19T20:34:42.230Z)
Latitude
-0.00005°
Longitude
70.98883°
Altitude
394.924 km
Speed
7.675 km/s
True Right ascension
03h 12m 55s
True Declination
0° 00' 00"
Sunlit
Object was in full shadow at epoch
Visualization orbit readout
Latitude
Unknown
Longitude
Unknown
Altitude
Unknown
Speed
Unknown
Apparent Right ascension
Unknown
Apparent Declination
Unknown
Sunlit
N/A
Visualization observer readout
Local Sidereal Time
01:22:36
Azimuth
Unknown
Elevation
Unknown
Doppler factor
Unknown
Orbital elements
Apogee altitude
396.585 km
Perigee altitude
394.56 km
Semi-major axis
6,773.71 km
Eccentricity
0.00015
Inclination
51.6331°
RAAN
48.2329°
Arg. of periapsis
29.644°
True anomaly
330.45515°
Mean anomaly
330.4636°
Eccentric anomaly
330.45938°
Mean motion
3.89317 °/min
Orbital period
92.47 mins
BSTAR
0.0017719
Loading maneuver chart data...
Computing Atmospheric mass density...

Documentation

Showing up to 5 results
|